Location: Unspecified
(0.0000°N, 0.0000°E)
Time: 02:45:37
(UTC+00:00)

Hubble Space Telescope - Visible Passes

Search period start: 19 March 2026 00:00
Search period end: 29 March 2026 00:00
Orbit: 476 x 478 km, 28.5° (Epoch: 18 March)

Date Brightness Start Highest point End Pass type
(mag) Time Alt. Az. Time Alt. Az. Time Alt. Az.
22 Mar 2.7 19:47:09 10° NW 19:48:29 19° NNW 19:48:29 19° NNW visible
23 Mar 1.4 19:16:22 10° NW 19:19:45 32° NNE 19:19:52 32° NE visible
24 Mar 1.5 18:45:34 10° NW 18:48:57 32° NNE 18:51:16 17° E visible
24 Mar 4.0 20:25:17 10° W 20:25:22 10° W 20:25:22 10° W visible
25 Mar 2.5 19:54:27 10° W 19:56:47 26° WSW 19:56:47 26° WSW visible
26 Mar 2.0 19:23:38 10° W 19:27:00 31° SSW 19:28:11 25° S visible
27 Mar 2.1 05:28:32 10° SW 05:31:55 31° SSE 05:35:17 10° E visible
27 Mar 2.0 18:52:47 10° W 18:56:10 31° SSW 18:59:33 10° SE visible
28 Mar 2.0 04:58:39 16° SSW 05:01:04 31° SSE 05:04:26 10° E visible
28 Mar 2.1 18:21:56 10° W 18:25:19 31° SSW 18:28:42 10° SE visible
